Find Starlink 35693

NORAD ID: 66490 Int'l Des: 2025-263 Owner: SPXS Country: US Constellation: starlink operational
LEOCIRCULAR

Current View

Loading 3D Globe...

About Starlink 35693

Starlink 35693 (NORAD 66490) is a starlink constellation satellite (v2 mini) launched Nov 15, 2025 by SPXS of US. It operates in LEO, CIRCULAR orbit with a mass of 575.00 kg.

Upcoming Passes

Passes for default location (London). Set your location on the main map for personalized predictions.

Altitude History

Loading altitude history...

Two-Line Element Set

1 66490U 25263F 26237.92182639 .00016569 00000-0 60956-3 0 9999
2 66490 43.0032 114.7204 0001706 263.1559 96.9099 15.27618159 44783
Epoch: Aug 25, 2026 • Age: 12 hours

Current Status

Altitude 485.9 km
Apogee / Perigee N/A
Velocity 7.62 km/s
Sub-Earth Point -17.17°S, 173.56°W
Launch Date Nov 15, 2025
Age 0.7 years
Type internet

Technical Details

Classification Payload
Mass 575.00 kg
Dry Mass 530.00 kg
Total Mass 575.00 kg
Length 0.30 m
Diameter 4.10 m
Span 29.00 m
Shape Box + pan
Manufacturer SPXS
Bus Type Starlink V2MO
Phase Status In Orbit
Owner/State SPXS/US

Most Searched